Zurück zum Katalog

FENGYUN 1C DEB

LostPO
NORAD 36166·DEBRIS·🇨🇳 China

Gestartet May 10, 1999 von Taiyuan Satellite Launch Center

Loading…

Nächste Überflüge (nächste 24 Stunden)

TLE

VeraltetSource: Space-Track

Epoche: Aug 26, 2021, 08:56 UTC

1 36166U 99025DSP 21238.37225613  .00000263  00000-0  27067-3 0  9998
2 36166  97.5578 144.4493 0357295 274.4987  81.5432 13.57752046677829

Verfolge FENGYUN 1C DEB in Echtzeit mit AllMySat

Download on the App Store